INTELSAT 33E DEB, 64397

Orbit data source: Space-Track

INTELSAT 33E DEB, 64397 is space debris in GEO originally from a launch on Wed, 24 Aug 2016 UTC launched from the French Guiana (FRGUI). Debris objects in space refer to the collection of defunct objects orbiting the Earth. Examples of debris include non-operational satellites, rocket bodies, and fragments generated from explosions, collisions, or faulty payload assembly.

Loading next visibility...
Identifier
64397, 2016-053AB
Orbit
GEO
Country
Flag of UnknownUnknown / ITSO
Related business
Manufacturer
Boeing/ES
Mission
Spacecraft
Bus & Motor
Unknown
Mass
Unknown
Launch date (UTC)
2016-08-24 (9 years ago)
Launch vehicle
Unknown
Launch site
French Guiana (FRGUI)
Object type
Payload
Rocket body
Debris
Shape & HBR
Unknown shape, 1.1 m
Radar Cross Section
RCS unknown

Expand to show TLE details & history
Last TLE update: 1 day ago

TLE from 1 day ago
0 INTELSAT 33E DEB
1 64397U 16053AB  25340.14983426 -.00000246  00000-0  00000-0 0  9998
2 64397   1.0400  81.6692 0050788  93.2277 265.9323  0.99473029  3989
Epoch: 2025-12-06T03:35Z
TLE epoch observation values (Epoch: 2025-12-06T03:35:45.680Z)
Latitude
Longitude
-48.8824°
Altitude
36,028.256 km
Speed
3.065 km/s
True Right ascension
05h 20m 57s
True Declination
0° 00' 00"
Sunlit
Object was in daylight at epoch
Visualization orbit readout
Latitude
Unknown
Longitude
Unknown
Altitude
Unknown
Speed
Unknown
Apparent Right ascension
Unknown
Apparent Declination
Unknown
Sunlit
N/A
Visualization observer readout
Local Sidereal Time
03:27:40
Azimuth
Unknown
Elevation
Unknown
Doppler factor
Unknown
Orbital elements
Apogee altitude
36,228.373 km
Perigee altitude
35,797.78 km
Semi-major axis
42,391.214 km
Eccentricity
0.00508
Inclination
1.04°
RAAN
81.6692°
Arg. of periapsis
93.2277°
True anomaly
265.35205°
Mean anomaly
265.9323°
Eccentric anomaly
265.64215°
Mean motion
0.24867 °/min
Orbital period
1,447.68 mins
BSTAR
0
Loading maneuver chart data...
Computing Atmospheric mass density...
Loading historical data...
Loading historical data...
Loading historical data...
Loading historical data...
Loading historical data...
Loading historical data...
Loading historical data...

Documentation

Showing up to 5 results
|